sat.trackr.live / text

‹ back to catalog

STARLINK-3569

NORAD 51811 · 2022-017AV

PAYLOAD ACTIVE UNKNOWN

§ Identity

Operator
Country
US
Launch date
2022-02-25
Launch site
AFWTR
Launch vehicle
Mass (kg)
RCS (m²)

Purposes: comms

External: N2YO · Heavens-Above · Gunter

§ Orbital elements

Epoch: 2026-09-20T01:04:11.932320Z

Period
93.84 min
Inclination
53.1572°
Eccentricity
0.0001443
Mean motion
15.34464296 rev/d
Perigee alt
461.5 km
Apogee alt
463.5 km
Semi-major
6,840.6 km
B*
8.7365e-4
RAAN
171.9570°
Arg perigee
108.3224°
Mean anomaly
251.7935°
Rev number
25,350

§ Raw data

STARLINK-35691 51811U 22017AV  26263.04458255  .00029317  00000+0  87365-3 0  99932 51811  53.1572 171.9570 0001443 108.3224 251.7935 15.34464296253504

JSON: /api/v1/satellites/51811 · /tle

For live sub-satellite position, see the globe view (requires WebGL).

§ Visibility from observer

Set your observer location to see the next 7 days of passes ≥ 10°. The values pass through the URL so the page stays shareable.

No JS? Fill the form by hand. The geolocation button needs JavaScript.